Tracking 20621 objects as of 1-Apr-2020
HD Live streaming from Space Station
objects crossing your sky now

COSMOS 2222

Track COSMOS 2222 now!
COSMOS 2222 is classified as:


NORAD ID: 22238
Int'l Code: 1992-081A
Perigee: 970.3 km
Apogee: 39,366.5 km
Inclination: 63.6 °
Period: 717.1 minutes
Semi major axis: 26539 km
RCS: 13.6381 m2 (large)
Launch date: November 25, 1992
Source: Commonwealth of Independent States (former USSR) (CIS)
Launch site: PLESETSK MISSILE AND SPACE COMPLEX (PKMTR)
aabbcc
Your satellite tracking list
Your tracking list is empty




NASA's NSSDC Master Catalog

Two Line Element Set (TLE):
1 22238U 92081A   20087.64632769 +.00001064 +00000-0 -10094-1 0  9994
2 22238 063.6076 053.6802 7233811 200.5314 100.4401 02.00801074200285
Source of the keplerian elements: AFSPC